SCP
0 0 0 0 0 0 0 0 0 0 0 0 0 0 0 0 0 0 0 0 0 0 0 0 0 0 0 0 0 0 0 0 0 0 0 0 0 0 0 0 0 0 0
0 0 0 0 0 0 0 0 0 0 0 0 0 0 0 0 0 0 0 0 0 0 0 0 0 0 0 0 0 0 0 0 0 0 0 0 0 0 0 0 0 0 0
0 0 0 0 0 0 0 0 0 0 0 0 0 0 0 0 0 0 0 0 0 0 0 0 0 0 0 0 0 0 0 0 0 0 0 0 0 0 0 0 0 0 0
0 0 0 0 0 0 0 0 0 0 0 0 0 0 0 0 0 0 0 0 0 0 0 0 0 0 0 0 0 0 0 0 0 0 0 0 0 0 0 0 0 0 0
0 0 0 0 0 0 0 0 0 0 0 0 0 0 0 0 0 0 0 0 0 0 0 0 0 0 0 0 0 0 0 0 0 0 0 0 0 0 0 0 0 0 0
0 0 0 0 0 0 0 0 0 0 0 0 0 0 0 0 0 0 0 0 0 0 0 0 0 0 0 0 0 0 0 0 0 0 0 0 0 0 0 0 0 0 0
0 0 0 0 0 0 0 0 0 0 0 0 0 0 0 0 0 0 0 0 0 0 0 0 0 0 0 0 0 0 0 0 0 0 0 0 0 0 0 0 0 0 0
0 0 0 0 0 0 0 0 0 0 0 0 0 0 0 0 0 0 0 0 0 0 0 0 0 0 0 0 0 0 0 0 0 0 0 0 0 0 0 0 0 0 0
0 0 0 0 0 0 0 0 0 0 0 0 0 0 0 0 0 0 0 0 0 0 0 0 0 0 0 0 0 0 0 0 0 0 0 0 0 0 0 0 0 0 0
0 0 0 0 0 0 0 0 0 0 0 0 0 0 0 0 0 0 0 0 0 0 0 0 0 0 0 0 0 0 0 0 0 0 0 0 0 0 0 0 0 0 0
0 0 0 0 0 0 0 0 0 0 0 0 0 0 0 0 0 0 0 0 0 0 0 0 0 0 0 0 0 0 0 0 0 0 0 0 0 0 0 0 0 0 0
0 0 0 0 0 0 0 0 0 0 0 0 0 0 0 0 0 0 0 0 0 0 0 0 0 0 0 0 0 0 0 0 0 0 0 0 0 0 0 0 0 0 0
0 0 0 0 0 0 0 0 0 0 0 0 0 0 0 0 0 0 0 0 0 0 0 0 0 0 0 0 0 0 0 0 0 0 0 0 0 0 0 0 0 0 0
0 0 0 0 0 0 0 0 0 0 0 0 0 0 0 0 0 0 0 0 0 0 0 0 0 0 0 0 0 0 0 0 0 0 0 0 0 0 0 0 0 0 0
0 0 0 0 0 0 0 0 0 0 0 0 0 0 0 0 0 0 0 0 0 0 0 0 0 0 0 0 0 0 0 0 0 0 0 0 0 0 0 0 0 0 0
0 0 0 0 0 0 0 0 0 0 0 0 0 0 0 0 0 0 0 0 0 0 0 0 0 0 0 0 0 0 0 0 0 0 0 0 0 0 0 0 0 0 0
0 0 0 0 0 0 0 0 0 0 0 0 0 0 0 0 0 0 0 0 0 0 0 0 0 0 0 0 0 0 0 0 0 0 0 0 0 0 0 0 0 0 0
0 0 0 0 0 0 0 0 0 0 0 0 0 0 0 0 0 0 0 0 0 0 0 0 0 0 0 0 0 0 0 0 0 0 0 0 0 0 0 0 0 0 0
0 0 0 0 0 0 0 0 0 0 0 0 0 0 0 0 0 0 0 0 0 0 0 0 0 0 0 0 0 0 0 0 0 0 0 0 0 0 0 0 0 0 0
0 0 0 0 0 0 0 0 0 0 0 0 0 0 0 0 0 0 0 0 0 0 0 0 0 0 0 0 0 0 0 0 0 0 0 0 0 0 0 0 0 0 0
0 0 0 0 0 0 0 0 0 0 0 0 0 0 0 0 0 0 0 0 0 0 0 0 0 0 0 0 0 0 0 0 0 0 0 0 0 0 0 0 0 0 0
0 0 0 0 0 0 0 0 0 0 0 0 0 0 0 0 0 0 0 0 0 0 0 0 0 0 0 0 0 0 0 0 0 0 0 0 0 0 0 0 0 0 0
0 0 0 0 0 0 0 0 0 0 0 0 0 0 0 0 0 0 0 0 0 0 0 0 0 0 0 0 0 0 0 0 0 0 0 0 0 0 0 0 0 0 0
0 0 0 0 0 0 0 0 0 0 0 0 0 0 0 0 0 0 0 0 0 0 0 0 0 0 0 0 0 0 0 0 0 0 0 0 0 0 0 0 0 0 0
0 0 0 0 0 0 0 0 0 0 0 0 0 0 0 0 0 0 0 0 0 0 0 0 0 0 0 0 0 0 0 0 0 0 0 0 0 0 0 0 0 0 0
0 0 0 0 0 0 0 0 0 0 0 0 0 0 0 0 0 0 0 0 0 0 0 0 0 0 0 0 0 0 0 0 0 0 0 0 0 0 0 0 0 0 0
Wind_Speed
2 2 3 3 3 3 3 4 4 5 6 6 7 7 8 8 7 7 8 8 9 9 8 9 10 8 7 6 6 7 8 8 14 11 6 7 8 9 9 8 8 10 10
2 2 2 2 3 3 4 4 5 5 6 7 7 8 8 9 8 8 10 10 10 12 11 10 12 9 10 8 7 8 9 9 11 16 9 7 9 9 9 10 9 8 9
1 2 2 3 3 4 4 5 6 6 7 7 8 8 9 10 10 10 10 11 11 12 12 12 13 12 13 10 9 10 9 10 10 12 13 7 7 7 9 9 9 9 9
2 2 3 3 4 4 5 5 6 7 7 8 9 9 10 11 11 11 12 12 12 13 13 13 13 13 14 13 12 12 11 11 11 12 13 9 8 8 8 9 9 7 8
3 3 3 3 3 4 5 6 7 8 8 9 11 11 11 10 10 13 14 14 15 15 15 14 15 15 19 18 15 12 12 12 11 12 13 11 9 7 9 6 11 8 9
3 2 2 3 4 5 7 8 9 9 10 10 11 12 12 11 19 24 20 16 16 17 17 16 16 16 17 25 28 27 23 18 15 14 13 15 14 10 8 8 9 9 10
2 2 2 3 4 6 7 8 9 10 11 11 11 12 13 16 23 24 25 19 17 16 17 16 15 14 16 16 21 26 25 28 29 21 18 19 17 11 10 11 12 13 14
2 1 1 2 4 6 7 9 10 10 10 11 12 13 14 16 24 26 26 19 16 16 16 16 17 17 16 19 18 18 18 19 22 18 17 18 16 13 12 13 14 14 13
1 1 0 2 4 6 8 10 9 10 10 11 12 12 13 16 23 26 26 14 13 16 15 16 17 17 22 27 20 18 19 18 22 27 29 29 32 32 25 13 13 13 15
2 0 1 2 3 6 8 10 9 9 11 11 12 11 13 14 21 25 25 12 12 13 13 14 18 20 25 28 19 17 18 18 16 17 21 24 22 22 28 20 14 14 13
2 0 1 3 5 7 7 8 8 10 10 10 13 12 12 13 19 23 24 13 13 14 13 12 13 25 29 30 27 19 23 24 17 16 15 15 14 14 14 14 14 14 15
2 1 3 4 6 6 6 8 8 8 10 10 10 11 9 10 15 19 25 24 24 16 14 13 15 28 31 33 26 26 32 28 14 12 13 13 13 13 13 13 15 16 16
1 2 4 5 6 6 6 8 7 6 7 9 9 10 10 9 12 22 24 27 28 19 15 24 29 33 32 23 25 31 24 14 12 13 14 13 13 13 13 12 13 14 16
2 4 5 5 5 5 5 6 6 6 7 8 9 10 11 10 10 10 11 14 18 17 15 18 26 28 25 23 19 17 12 11 12 14 14 13 12 11 12 11 12 11 12
3 4 4 5 5 5 6 6 8 8 10 12 10 10 12 11 14 25 21 14 14 14 17 11 10 10 10 10 11 11 10 11 12 12 12 12 12 12 13 11 11 11 12
3 4 3 4 4 5 6 8 13 15 19 21 21 19 14 19 27 27 27 27 27 26 16 9 10 11 12 12 13 13 11 11 11 11 11 12 12 12 12 11 10 11 11
4 4 3 4 4 5 5 7 10 13 17 18 18 20 21 23 25 26 26 25 23 21 8 9 10 11 12 12 12 13 13 12 12 11 12 12 12 12 11 11 10 10 10
5 5 5 4 4 4 5 6 6 8 12 11 15 21 22 24 25 24 23 18 11 10 6 9 10 11 12 12 12 13 13 12 11 10 10 11 11 11 11 11 9 9 9
5 4 4 4 4 4 5 5 6 7 8 10 11 13 17 21 22 20 18 7 9 10 9 9 10 11 12 12 12 12 12 12 11 10 10 11 11 11 10 10 9 9 8
4 6 5 4 4 4 4 5 5 6 7 7 8 9 11 10 9 11 10 7 8 9 10 10 11 11 12 12 12 12 11 11 10 9 10 10 10 10 10 10 8 6 5
4 4 5 4 4 4 4 4 5 5 6 7 8 10 16 8 8 10 10 9 9 10 10 11 11 12 12 11 11 12 12 11 10 9 9 9 8 8 7 7 6 4 3
3 3 3 4 4 4 4 4 5 5 6 8 8 10 15 7 7 8 8 9 9 9 9 10 10 10 11 12 12 11 11 11 10 9 9 8 8 7 5 4 2 0 2
4 4 4 4 4 5 5 4 4 5 6 6 7 8 7 7 7 8 9 9 10 10 10 9 10 11 11 11 11 10 10 10 10 10 9 8 7 5 4 2 1 2 3
3 4 4 4 3 4 4 5 5 5 6 6 6 6 7 7 8 9 9 9 9 10 10 10 10 14 18 15 11 10 10 10 10 8 9 7 6 5 4 4 4 5 5
3 4 4 4 4 4 4 5 5 5 5 6 6 6 6 7 8 8 8 8 10 11 12 12 10 12 17 19 16 14 15 16 13 10 8 7 7 6 6 5 5 6 6
4 4 4 4 4 4 4 5 5 6 5 6 6 6 6 7 8 8 8 8 9 10 11 10 13 16 18 14 16 18 18 16 15 14 9 7 7 7 6 6 7 6 7
Wind_Direction
73 61 46 25 14 8 360 347 339 334 333 330 327 323 320 317 315 310 303 299 294 291 286 282 279 276 272 267 259 257 256 255 269 275 261 271 266 262 263 254 251 251 254
86 69 43 19 11 6 353 343 340 333 331 327 324 319 314 312 309 303 300 298 292 290 289 285 282 281 273 269 264 262 260 255 263 276 274 266 264 263 261 258 255 251 247
89 64 34 19 13 1 350 346 344 336 331 328 324 318 313 310 306 300 293 290 285 283 284 283 282 280 278 273 266 266 265 266 261 270 275 263 262 261 266 264 256 253 249
84 61 37 23 14 2 355 351 344 337 331 329 324 316 313 311 308 303 301 297 292 287 284 281 279 276 276 276 273 269 267 268 265 267 272 269 260 254 253 264 267 253 251
81 60 42 27 16 4 353 344 336 333 329 324 319 315 313 309 303 305 305 300 297 294 291 287 283 279 277 276 275 273 270 268 267 267 270 271 263 249 249 247 260 265 257
90 72 40 18 3 351 341 335 330 326 323 318 314 312 309 307 306 307 306 302 299 296 294 293 290 284 280 282 281 279 275 271 269 265 266 265 265 255 251 250 255 260 264
108 79 31 11 349 337 332 328 324 321 317 313 310 309 305 303 305 307 307 304 299 295 294 293 291 289 289 287 285 283 280 276 272 270 268 266 267 263 258 258 255 254 256
132 125 30 357 335 328 324 318 315 313 311 309 307 304 300 300 306 308 307 303 296 292 291 292 291 291 290 289 286 283 279 275 272 272 269 271 271 266 258 260 262 264 264
178 191 10 344 323 318 312 310 311 309 305 301 298 298 299 300 304 305 304 300 294 293 291 290 289 290 289 291 290 285 283 280 281 278 274 272 269 268 263 258 254 253 256
195 215 344 328 309 304 304 305 304 301 297 299 298 297 295 293 298 303 305 298 294 292 289 286 284 284 286 288 286 284 283 283 281 280 278 279 276 272 269 261 255 254 257
128 87 313 317 306 296 293 294 296 296 297 295 294 293 289 288 294 301 303 299 292 291 291 290 286 289 289 288 285 280 278 280 277 275 274 272 271 268 263 256 250 249 251
129 288 299 298 295 292 286 289 289 291 295 294 294 295 291 290 292 297 301 300 299 295 292 290 286 288 289 288 286 280 283 284 280 278 274 272 269 266 262 258 254 250 249
159 277 282 282 277 277 280 289 291 286 288 294 296 297 297 291 290 298 300 300 298 295 288 290 293 296 296 293 288 288 287 279 273 271 269 268 267 268 267 263 259 256 253
241 271 276 276 280 278 279 282 282 284 286 288 290 291 293 293 293 293 289 292 296 296 294 294 298 299 297 297 294 291 281 273 270 270 271 271 271 268 266 261 258 251 253
241 264 275 278 278 285 282 272 279 267 269 284 287 291 301 304 301 306 309 308 305 302 311 310 309 309 305 302 298 292 286 280 273 268 268 270 268 265 264 258 253 249 247
240 258 268 279 281 286 294 297 295 296 299 301 303 305 305 305 311 315 317 317 321 325 330 322 315 310 307 305 303 301 295 287 282 279 273 269 269 268 267 261 251 246 245
222 246 260 274 281 288 294 302 308 312 311 312 315 318 317 318 321 323 325 330 333 338 332 311 307 306 304 302 299 296 293 289 285 280 279 276 273 272 269 265 255 244 245
223 240 247 252 262 271 279 284 289 300 310 312 317 320 324 327 327 331 338 343 332 332 311 308 307 305 304 302 300 297 294 292 286 281 276 275 275 272 269 268 262 249 245
221 233 237 245 251 259 271 279 281 282 286 295 306 315 322 322 328 336 345 336 317 318 316 310 306 304 303 302 300 298 296 293 286 282 277 274 273 272 268 267 266 256 244
224 242 245 244 256 263 267 273 280 284 288 292 295 303 309 314 330 331 331 318 315 311 310 309 308 305 305 304 304 303 303 300 295 285 280 278 274 271 269 267 264 255 245
217 239 252 256 255 258 262 265 273 280 285 289 290 296 314 328 317 311 313 314 313 312 311 311 309 310 309 310 311 309 309 308 305 300 294 289 288 280 272 268 263 250 228
213 227 235 245 254 258 261 264 268 274 280 285 293 304 320 320 305 306 308 309 309 306 306 307 308 310 313 316 318 316 315 315 314 311 306 300 296 294 291 289 291 265 127
211 229 243 247 251 263 269 263 266 270 275 279 289 299 308 309 307 306 307 309 310 311 312 312 312 314 320 320 319 319 318 318 317 314 313 310 312 315 320 333 17 78 97
208 228 244 253 254 257 265 271 270 273 276 284 286 290 295 300 301 302 304 307 311 312 314 316 315 318 323 328 327 327 328 334 331 325 324 327 334 345 3 26 47 69 85
214 229 241 248 254 260 268 273 274 276 279 282 285 290 295 298 300 301 304 307 311 313 315 317 318 324 326 327 332 336 343 352 354 350 345 352 3 14 25 38 49 63 75
223 233 240 244 247 252 258 268 275 279 281 283 284 286 291 295 297 300 304 308 315 315 315 316 319 323 325 329 334 345 353 3 9 7 4 8 18 25 31 43 51 61 70